Location: Allonne
(49.4086°N, 2.1143°E)
Time: 00:43:00
(UTC+00:00)

Cosmos 2278 - Pass Details

Date: 03 February 2023
Orbit: 838 x 853 km, 71.1° (Epoch: 21 March)

Event Time Altitude Azimuth Distance (km) Brightness Sun altitude
Rises 18:00:28 0° 217° (SW) 3,390 7.7 -11.6°
Reaches altitude 10° 18:02:56 10° 221° (SW) 2,461 6.9 -12.0°
Maximum altitude 18:08:32 63° 302° (WNW) 947 4.2 -12.9°
Drops below altitude 10° 18:14:12 10° 24° (NNE) 2,487 5.8 -13.8°
Enters shadow 18:16:03 - 27° (NNE) 3,180 6.4 -14.1°
